Hourly Weather Dziadkowo

Today, 9 May, Sunday

Time Temperature Precipitation Wind Pressure Humidity
00:00 +4°C° 0 mm 3 mps 749 mmHg 78%
01:00 +4°C° 0 mm 4 mps 749 mmHg 80%
02:00 +4°C° 0 mm 4 mps 748 mmHg 77%
03:00 +4°C° 0 mm 4 mps 748 mmHg 74%
04:00 +4°C° 0 mm 4 mps 748 mmHg 71%
05:00 +5°C° 0 mm 4 mps 747 mmHg 71%
06:00 +7°C° 0 mm 5 mps 747 mmHg 70%
07:00 +8°C° 0 mm 5 mps 747 mmHg 69%
08:00 +10°C° 0 mm 5 mps 747 mmHg 65%
09:00 +13°C° 0 mm 5 mps 747 mmHg 60%
10:00 +16°C° 0 mm 5 mps 747 mmHg 56%
11:00 +17°C° 0 mm 6 mps 747 mmHg 55%
12:00 +19°C° 0 mm 6 mps 747 mmHg 54%
13:00 +20°C° 0 mm 6 mps 746 mmHg 53%
14:00 +21°C° 0 mm 5 mps 746 mmHg 55%
15:00 +21°C° 0 mm 5 mps 746 mmHg 58%
16:00 +21°C° 0 mm 5 mps 746 mmHg 60%
17:00 +19°C° 0 mm 4 mps 746 mmHg 67%
18:00 +17°C° 0 mm 4 mps 746 mmHg 73%
19:00 +16°C° 0 mm 3 mps 746 mmHg 79%
20:00 +13°C° 0 mm 3 mps 746 mmHg 79%
21:00 +12°C° 0 mm 4 mps 746 mmHg 80%
22:00 +11°C° 0 mm 4 mps 746 mmHg 80%
23:00 +10°C° 0 mm 4 mps 745 mmHg 78%

Tomorrow, 10 May, Monday

Time Temperature Precipitation Wind Pressure Humidity
00:00 +10°C° 0 mm 4 mps 745 mmHg 77%
01:00 +8°C° 0 mm 4 mps 745 mmHg 75%
02:00 +8°C° 0 mm 4 mps 745 mmHg 71%
03:00 +9°C° 0 mm 5 mps 745 mmHg 68%
04:00 +9°C° 0 mm 5 mps 745 mmHg 65%
05:00 +10°C° 0 mm 6 mps 745 mmHg 64%
06:00 +11°C° 0 mm 6 mps 744 mmHg 64%
07:00 +14°C° 0 mm 7 mps 744 mmHg 63%
08:00 +15°C° 0 mm 7 mps 744 mmHg 61%
09:00 +17°C° 0 mm 8 mps 744 mmHg 58%
10:00 +20°C° 0 mm 8 mps 744 mmHg 56%
11:00 +21°C° 0 mm 8 mps 744 mmHg 56%
12:00 +21°C° 0 mm 7 mps 744 mmHg 55%
13:00 +22°C° 0 mm 6 mps 744 mmHg 55%
14:00 +22°C° 0 mm 6 mps 744 mmHg 57%
15:00 +22°C° 0 mm 5 mps 744 mmHg 59%
16:00 +23°C° 0 mm 5 mps 744 mmHg 61%
17:00 +21°C° 0 mm 4 mps 744 mmHg 68%
18:00 +19°C° 0 mm 3 mps 744 mmHg 74%
19:00 +18°C° 0 mm 3 mps 745 mmHg 81%
20:00 +17°C° 0 mm 3 mps 744 mmHg 83%
21:00 +16°C° 0 mm 3 mps 744 mmHg 85%
22:00 +14°C° 0 mm 3 mps 744 mmHg 87%
23:00 +14°C° 0 mm 3 mps 744 mmHg 86%

Day after tomorrow, 11 May, Tuesday

Time Temperature Precipitation Wind Pressure Humidity
00:00 +13°C° 0 mm 3 mps 744 mmHg 85%
01:00 +13°C° 0 mm 4 mps 744 mmHg 85%
02:00 +13°C° 0 mm 4 mps 743 mmHg 82%
03:00 +13°C° 0 mm 5 mps 743 mmHg 80%
04:00 +13°C° 0 mm 5 mps 742 mmHg 78%
05:00 +15°C° 0 mm 5 mps 742 mmHg 76%
06:00 +16°C° 0 mm 5 mps 742 mmHg 74%
07:00 +17°C° 0 mm 6 mps 742 mmHg 72%
08:00 +19°C° 0 mm 6 mps 742 mmHg 68%
09:00 +21°C° 0 mm 6 mps 742 mmHg 64%
10:00 +22°C° 0 mm 7 mps 742 mmHg 60%
11:00 +23°C° 0 mm 7 mps 742 mmHg 58%
12:00 +24°C° 0 mm 7 mps 742 mmHg 57%
13:00 +26°C° 0 mm 7 mps 741 mmHg 56%
14:00 +26°C° 0 mm 6 mps 741 mmHg 58%
15:00 +24°C° 0 mm 6 mps 741 mmHg 60%
16:00 +25°C° 0 mm 5 mps 741 mmHg 62%
17:00 +23°C° 0 mm 5 mps 741 mmHg 67%
18:00 +21°C° 0 mm 4 mps 741 mmHg 71%
19:00 +20°C° 0 mm 3 mps 741 mmHg 76%
20:00 +19°C° 0 mm 3 mps 741 mmHg 78%
21:00 +18°C° 0 mm 4 mps 741 mmHg 79%
22:00 +18°C° 0 mm 4 mps 741 mmHg 81%
23:00 +17°C° 0 mm 4 mps 740 mmHg 83%

12 May, Wednesday

Time Temperature Precipitation Wind Pressure Humidity
00:00 +15°C° 0 mm 4 mps 740 mmHg 85%
01:00 +15°C° 0 mm 4 mps 740 mmHg 87%
02:00 +14°C° 0 mm 4 mps 740 mmHg 88%
03:00 +13°C° 0 mm 4 mps 740 mmHg 88%
04:00 +13°C° 0 mm 4 mps 740 mmHg 89%
05:00 +14°C° 0 mm 5 mps 740 mmHg 85%
06:00 +15°C° 0 mm 5 mps 740 mmHg 81%
07:00 +16°C° 0 mm 5 mps 740 mmHg 77%
08:00 +17°C° 0 mm 5 mps 740 mmHg 72%
09:00 +20°C° 0 mm 5 mps 740 mmHg 68%
10:00 +22°C° 0 mm 5 mps 740 mmHg 63%
11:00 +23°C° 0 mm 4 mps 740 mmHg 60%
12:00 +23°C° 0 mm 4 mps 739 mmHg 58%
13:00 +25°C° 0 mm 4 mps 739 mmHg 56%
14:00 +25°C° 0 mm 4 mps 739 mmHg 58%
15:00 +25°C° 0 mm 5 mps 739 mmHg 60%
16:00 +25°C° 0 mm 5 mps 739 mmHg 61%
17:00 +22°C° 0.2 mm 5 mps 739 mmHg 66%
18:00 +20°C° 0.2 mm 5 mps 739 mmHg 71%
19:00 +19°C° 0.2 mm 4 mps 739 mmHg 75%
20:00 +17°C° 0 mm 4 mps 739 mmHg 78%
21:00 +16°C° 0 mm 3 mps 739 mmHg 80%
22:00 +15°C° 0 mm 2 mps 740 mmHg 82%
23:00 +14°C° 0 mm 2 mps 740 mmHg 84%

13 May, Thursday

Time Temperature Precipitation Wind Pressure Humidity
00:00 +13°C° 0 mm 2 mps 739 mmHg 87%
01:00 +11°C° 0 mm 3 mps 739 mmHg 90%
02:00 +10°C° 0 mm 3 mps 739 mmHg 91%
03:00 +10°C° 0 mm 3 mps 739 mmHg 91%
04:00 +9°C° 0 mm 3 mps 739 mmHg 92%
05:00 +10°C° 0 mm 4 mps 739 mmHg 86%
06:00 +11°C° 0 mm 4 mps 739 mmHg 80%
07:00 +12°C° 0 mm 5 mps 739 mmHg 74%
08:00 +13°C° 0 mm 4 mps 739 mmHg 69%
09:00 +15°C° 0 mm 4 mps 739 mmHg 64%
10:00 +17°C° 0 mm 4 mps 739 mmHg 59%
11:00 +17°C° 0 mm 4 mps 739 mmHg 56%
12:00 +18°C° 0 mm 3 mps 739 mmHg 54%
13:00 +18°C° 0 mm 3 mps 739 mmHg 51%
14:00 +17°C° 0 mm 3 mps 739 mmHg 57%
15:00 +16°C° 0 mm 3 mps 739 mmHg 64%
16:00 +14°C° 0 mm 3 mps 739 mmHg 70%
17:00 +14°C° 0 mm 3 mps 739 mmHg 73%
18:00 +13°C° 0 mm 3 mps 739 mmHg 75%
19:00 +14°C° 0 mm 2 mps 739 mmHg 77%
20:00 +13°C° 0 mm 2 mps 739 mmHg 80%
21:00 +12°C° 0 mm 2 mps 739 mmHg 83%
22:00 +11°C° 0 mm 1 mps 739 mmHg 86%
23:00 +11°C° 0 mm 1 mps 739 mmHg 88%

14 May, Friday

Time Temperature Precipitation Wind Pressure Humidity
00:00 +10°C° 0 mm 1 mps 739 mmHg 90%
01:00 +10°C° 0 mm 1 mps 739 mmHg 92%
02:00 +9°C° 0 mm 1 mps 739 mmHg 93%
03:00 +9°C° 0 mm 1 mps 740 mmHg 94%
04:00 +9°C° 0 mm 1 mps 740 mmHg 94%
05:00 +10°C° 0 mm 1 mps 740 mmHg 91%
06:00 +11°C° 0 mm 1 mps 740 mmHg 88%
07:00 +13°C° 0 mm 1 mps 740 mmHg 85%
08:00 +13°C° 0.1 mm 2 mps 740 mmHg 81%
09:00 +14°C° 0.1 mm 2 mps 740 mmHg 78%
10:00 +14°C° 0.1 mm 3 mps 740 mmHg 75%
11:00 +16°C° 0.4 mm 3 mps 740 mmHg 73%
12:00 +16°C° 0.4 mm 3 mps 741 mmHg 71%
13:00 +17°C° 0.4 mm 3 mps 741 mmHg 69%
14:00 +17°C° 0.3 mm 4 mps 741 mmHg 70%
15:00 +15°C° 0.3 mm 4 mps 741 mmHg 72%
16:00 +15°C° 0.3 mm 4 mps 741 mmHg 73%
17:00 +14°C° 0.1 mm 4 mps 741 mmHg 78%
18:00 +13°C° 0.1 mm 4 mps 742 mmHg 83%
19:00 +12°C° 0.1 mm 4 mps 742 mmHg 88%
20:00 +11°C° 0 mm 3 mps 742 mmHg 88%
21:00 +11°C° 0 mm 3 mps 742 mmHg 88%
22:00 +10°C° 0 mm 3 mps 743 mmHg 89%
23:00 +10°C° 0 mm 3 mps 743 mmHg 88%
Show more